Time,TemperatureF,DewpointF,PressureIn,WindDirection,WindDirectionDegrees,WindSpeedMPH,WindSpeedGustMPH,Humidity,HourlyPrecipIn,Conditions,Clouds,dailyrainin,SolarRadiationWatts/m^2,SoftwareType,DateUTC
2013-05-30 00:00:00,50.1,46.1,29.64,North,-999,8.0,11.0,86,0.00,,,0.00,0.00,VWS V14.01,2013-05-30 06:00:00,
2013-05-30 00:05:00,50.1,46.1,29.64,North,-999,10.0,13.0,86,0.00,,,0.00,0.00,VWS V14.01,2013-05-30 06:05:00,
2013-05-30 00:10:00,50.1,45.8,29.64,North,-999,13.0,13.0,85,0.00,,,0.00,0.00,VWS V14.01,2013-05-30 06:10:00,
2013-05-30 00:15:00,50.2,45.9,29.64,North,-999,4.0,14.0,85,0.00,,,0.00,0.00,VWS V14.01,2013-05-30 06:15:00,
2013-05-30 00:20:00,50.3,46.0,29.64,North,-999,11.0,14.0,85,0.00,,,0.00,0.00,VWS V14.01,2013-05-30 06:20:00,
2013-05-30 00:25:00,50.3,46.0,29.64,North,-999,10.0,14.0,85,0.00,,,0.00,0.00,VWS V14.01,2013-05-30 06:25:00,
2013-05-30 00:30:00,50.2,45.9,29.64,North,-999,9.0,11.0,85,0.00,,,0.00,0.00,VWS V14.01,2013-05-30 06:30:00,
2013-05-30 00:35:00,50.2,45.9,29.64,North,-999,7.0,11.0,85,0.00,,,0.00,0.00,VWS V14.01,2013-05-30 06:35:00,
2013-05-30 00:40:00,50.0,46.0,29.64,North,-999,3.0,10.0,86,0.00,,,0.00,0.00,VWS V14.01,2013-05-30 06:40:00,
2013-05-30 00:45:00,49.9,45.9,29.64,North,-999,6.0,10.0,86,0.00,,,0.00,0.00,VWS V14.01,2013-05-30 06:45:00,
2013-05-30 00:50:00,49.9,45.9,29.64,North,-999,0.0,5.0,86,0.00,,,0.00,0.00,VWS V14.01,2013-05-30 06:50:00,
2013-05-30 00:55:00,49.9,45.9,29.64,North,-999,0.0,5.0,86,0.00,,,0.00,0.00,VWS V14.01,2013-05-30 06:55:00,
2013-05-30 01:00:00,49.8,45.8,29.63,North,-999,0.0,0.0,86,0.00,,,0.00,0.00,VWS V14.01,2013-05-30 07:00:00,
2013-05-30 01:05:00,49.8,45.8,29.63,North,-999,0.0,5.0,86,0.00,,,0.00,0.00,VWS V14.01,2013-05-30 07:05:00,
2013-05-30 01:10:00,49.8,45.8,29.63,North,-999,0.0,0.0,86,0.00,,,0.00,0.00,VWS V14.01,2013-05-30 07:10:00,
2013-05-30 01:15:00,49.8,45.8,29.63,North,-999,0.0,0.0,86,0.00,,,0.00,0.00,VWS V14.01,2013-05-30 07:15:00,
2013-05-30 01:20:00,49.9,45.6,29.63,North,-999,3.0,7.0,85,0.00,,,0.00,0.00,VWS V14.01,2013-05-30 07:20:00,
2013-05-30 01:25:00,50.0,45.7,29.63,North,-999,0.0,7.0,85,0.00,,,0.00,0.00,VWS V14.01,2013-05-30 07:25:00,
2013-05-30 01:30:00,50.1,45.5,29.62,North,-999,0.0,0.0,84,0.00,,,0.00,0.00,VWS V14.01,2013-05-30 07:30:00,
2013-05-30 01:35:00,50.2,45.2,29.62,North,-999,0.0,5.0,83,0.00,,,0.00,0.00,VWS V14.01,2013-05-30 07:35:00,
2013-05-30 01:40:00,50.3,45.3,29.62,North,-999,0.0,4.0,83,0.00,,,0.00,0.00,VWS V14.01,2013-05-30 07:40:00,
2013-05-30 01:45:00,50.3,45.3,29.62,North,-999,0.0,4.0,83,0.00,,,0.00,0.00,VWS V14.01,2013-05-30 07:45:00,
2013-05-30 01:50:00,50.3,45.3,29.62,North,-999,0.0,0.0,83,0.00,,,0.00,0.00,VWS V14.01,2013-05-30 07:50:00,
2013-05-30 01:55:00,50.3,45.3,29.62,North,-999,0.0,0.0,83,0.00,,,0.00,0.00,VWS V14.01,2013-05-30 07:55:00,
2013-05-30 02:00:00,50.2,45.2,29.62,North,-999,0.0,0.0,83,0.00,,,0.00,0.00,VWS V14.01,2013-05-30 08:00:00,
2013-05-30 02:05:00,50.1,45.2,29.61,North,-999,1.0,3.0,83,0.00,,,0.00,0.00,VWS V14.01,2013-05-30 08:05:00,
2013-05-30 02:10:00,50.1,45.2,29.61,North,-999,0.0,0.0,83,0.00,,,0.00,0.00,VWS V14.01,2013-05-30 08:10:00,
2013-05-30 02:15:00,50.1,45.2,29.61,North,-999,0.0,2.0,83,0.00,,,0.00,0.00,VWS V14.01,2013-05-30 08:15:00,
2013-05-30 02:20:00,50.1,45.2,29.61,North,-999,0.0,0.0,83,0.00,,,0.00,0.00,VWS V14.01,2013-05-30 08:20:00,
2013-05-30 02:25:00,50.0,45.4,29.61,North,-999,0.0,0.0,84,0.00,,,0.00,0.00,VWS V14.01,2013-05-30 08:25:00,
2013-05-30 02:30:00,49.9,45.0,29.61,North,-999,0.0,0.0,83,0.00,,,0.00,0.00,VWS V14.01,2013-05-30 08:30:00,
2013-05-30 02:35:00,49.9,45.3,29.61,North,-999,0.0,0.0,84,0.00,,,0.00,0.00,VWS V14.01,2013-05-30 08:35:00,
2013-05-30 02:40:00,49.9,45.3,29.61,North,-999,0.0,0.0,84,0.00,,,0.00,0.00,VWS V14.01,2013-05-30 08:40:00,
2013-05-30 02:45:00,49.8,45.2,29.61,North,-999,0.0,0.0,84,0.00,,,0.00,0.00,VWS V14.01,2013-05-30 08:45:00,
2013-05-30 02:50:00,49.7,45.1,29.61,North,-999,0.0,0.0,84,0.00,,,0.00,0.00,VWS V14.01,2013-05-30 08:50:00,
2013-05-30 02:55:00,49.7,45.1,29.61,North,-999,0.0,0.0,84,0.00,,,0.00,0.00,VWS V14.01,2013-05-30 08:55:00,
2013-05-30 03:00:00,49.6,45.3,29.61,North,-999,0.0,0.0,85,0.00,,,0.00,0.00,VWS V14.01,2013-05-30 09:00:00,
2013-05-30 03:05:00,49.6,45.3,29.61,North,-999,0.0,0.0,85,0.00,,,0.00,0.00,VWS V14.01,2013-05-30 09:05:00,
2013-05-30 03:10:00,49.6,45.3,29.61,North,-999,0.0,0.0,85,0.00,,,0.00,0.00,VWS V14.01,2013-05-30 09:10:00,
2013-05-30 03:15:00,49.6,45.3,29.61,North,-999,0.0,0.0,85,0.00,,,0.00,0.00,VWS V14.01,2013-05-30 09:15:00,
2013-05-30 03:20:00,49.6,45.3,29.61,North,-999,0.0,0.0,85,0.00,,,0.00,0.00,VWS V14.01,2013-05-30 09:20:00,
2013-05-30 03:25:00,49.6,45.3,29.61,North,-999,0.0,0.0,85,0.00,,,0.00,0.00,VWS V14.01,2013-05-30 09:25:00,
2013-05-30 03:30:00,49.6,45.0,29.61,North,-999,0.0,0.0,84,0.00,,,0.00,0.00,VWS V14.01,2013-05-30 09:30:00,
2013-05-30 03:35:00,49.7,45.1,29.61,North,-999,0.0,0.0,84,0.00,,,0.00,0.00,VWS V14.01,2013-05-30 09:35:00,
2013-05-30 03:40:00,49.8,45.2,29.60,North,-999,0.0,0.0,84,0.00,,,0.00,0.00,VWS V14.01,2013-05-30 09:40:00,
2013-05-30 03:45:00,49.8,45.2,29.61,North,-999,0.0,0.0,84,0.00,,,0.00,0.00,VWS V14.01,2013-05-30 09:45:00,
2013-05-30 03:50:00,49.8,45.2,29.61,North,-999,3.0,4.0,84,0.00,,,0.00,0.00,VWS V14.01,2013-05-30 09:50:00,
2013-05-30 03:55:00,49.9,45.3,29.61,North,-999,0.0,4.0,84,0.00,,,0.00,0.00,VWS V14.01,2013-05-30 09:55:00,
2013-05-30 04:00:00,49.8,45.2,29.61,North,-999,0.0,0.0,84,0.00,,,0.00,0.00,VWS V14.01,2013-05-30 10:00:00,
2013-05-30 04:05:00,49.6,45.6,29.60,North,-999,0.0,0.0,86,0.00,,,0.00,0.00,VWS V14.01,2013-05-30 10:05:00,
2013-05-30 04:10:00,49.4,45.7,29.61,North,-999,0.0,0.0,87,0.00,,,0.00,0.00,VWS V14.01,2013-05-30 10:10:00,
2013-05-30 04:15:00,49.4,45.4,29.61,North,-999,0.0,0.0,86,0.00,,,0.00,0.00,VWS V14.01,2013-05-30 10:15:00,
2013-05-30 04:20:00,49.6,45.3,29.61,North,-999,0.0,0.0,85,0.00,,,0.00,0.00,VWS V14.01,2013-05-30 10:20:00,
2013-05-30 04:25:00,49.7,45.1,29.61,North,-999,0.0,0.0,84,0.00,,,0.00,0.00,VWS V14.01,2013-05-30 10:25:00,
2013-05-30 04:30:00,49.9,45.3,29.61,North,-999,0.0,0.0,84,0.00,,,0.00,0.00,VWS V14.01,2013-05-30 10:30:00,
2013-05-30 04:35:00,50.0,45.4,29.61,North,-999,0.0,0.0,84,0.00,,,0.00,0.00,VWS V14.01,2013-05-30 10:35:00,
2013-05-30 04:40:00,50.1,45.5,29.61,North,-999,3.0,6.0,84,0.00,,,0.00,0.00,VWS V14.01,2013-05-30 10:40:00,
2013-05-30 04:45:00,49.8,45.5,29.61,North,-999,0.0,6.0,85,0.00,,,0.00,0.00,VWS V14.01,2013-05-30 10:45:00,
2013-05-30 04:50:00,49.5,45.5,29.61,North,-999,0.0,0.0,86,0.00,,,0.00,0.00,VWS V14.01,2013-05-30 10:50:00,
2013-05-30 04:55:00,49.4,45.4,29.61,North,-999,0.0,0.0,86,0.00,,,0.00,0.00,VWS V14.01,2013-05-30 10:55:00,
2013-05-30 05:00:00,49.4,45.4,29.61,North,-999,0.0,0.0,86,0.00,,,0.00,0.00,VWS V14.01,2013-05-30 11:00:00,
2013-05-30 05:04:00,49.4,45.4,29.61,North,-999,0.0,0.0,86,0.00,,,0.00,0.00,VWS V14.01,2013-05-30 11:04:00,
2013-05-30 05:09:00,49.4,45.1,29.61,North,-999,0.0,0.0,85,0.00,,,0.00,0.00,VWS V14.01,2013-05-30 11:09:00,
2013-05-30 05:14:00,49.5,45.2,29.61,North,-999,0.0,0.0,85,0.00,,,0.00,0.00,VWS V14.01,2013-05-30 11:14:00,
2013-05-30 05:19:00,49.6,45.3,29.61,North,-999,0.0,0.0,85,0.00,,,0.00,0.00,VWS V14.01,2013-05-30 11:19:00,
2013-05-30 05:24:00,49.7,45.7,29.61,North,-999,0.0,0.0,86,0.00,,,0.00,0.00,VWS V14.01,2013-05-30 11:24:00,
2013-05-30 05:29:00,49.6,45.6,29.62,North,-999,0.0,0.0,86,0.00,,,0.00,0.00,VWS V14.01,2013-05-30 11:29:00,
2013-05-30 05:34:00,49.7,45.7,29.62,North,-999,0.0,0.0,86,0.00,,,0.00,0.00,VWS V14.01,2013-05-30 11:34:00,
2013-05-30 05:39:00,49.7,45.4,29.62,North,-999,0.0,0.0,85,0.00,,,0.00,0.00,VWS V14.01,2013-05-30 11:39:00,
2013-05-30 05:44:00,49.7,45.4,29.61,North,-999,0.0,0.0,85,0.00,,,0.00,0.00,VWS V14.01,2013-05-30 11:44:00,
2013-05-30 05:49:00,49.8,45.8,29.62,North,-999,2.0,3.0,86,0.00,,,0.00,0.00,VWS V14.01,2013-05-30 11:49:00,
2013-05-30 05:54:00,49.8,45.5,29.62,North,-999,0.0,4.0,85,0.00,,,0.00,0.00,VWS V14.01,2013-05-30 11:54:00,
2013-05-30 05:59:00,49.8,45.8,29.62,North,-999,0.0,0.0,86,0.00,,,0.00,5.00,VWS V14.01,2013-05-30 11:59:00,
2013-05-30 06:04:00,49.5,45.8,29.62,North,-999,0.0,5.0,87,0.00,,,0.00,7.00,VWS V14.01,2013-05-30 12:04:00,
2013-05-30 06:09:00,49.2,45.8,29.62,North,-999,0.0,0.0,88,0.00,,,0.00,9.00,VWS V14.01,2013-05-30 12:09:00,
2013-05-30 06:14:00,49.0,45.9,29.62,North,-999,3.0,3.0,89,0.01,,,0.01,11.00,VWS V14.01,2013-05-30 12:14:00,
2013-05-30 06:19:00,48.8,46.0,29.62,North,-999,4.0,5.0,90,0.01,,,0.01,14.00,VWS V14.01,2013-05-30 12:19:00,
2013-05-30 06:24:00,48.8,46.0,29.62,North,-999,3.0,5.0,90,0.01,,,0.01,18.00,VWS V14.01,2013-05-30 12:24:00,
2013-05-30 06:29:00,48.9,46.1,29.62,North,-999,0.0,0.0,90,0.01,,,0.01,21.00,VWS V14.01,2013-05-30 12:29:00,
2013-05-30 06:34:00,48.8,46.0,29.62,North,-999,0.0,0.0,90,0.01,,,0.01,26.00,VWS V14.01,2013-05-30 12:34:00,
2013-05-30 06:39:00,48.8,46.3,29.62,North,-999,0.0,0.0,91,0.01,,,0.01,30.00,VWS V14.01,2013-05-30 12:39:00,
2013-05-30 06:44:00,48.9,46.4,29.62,North,-999,0.0,0.0,91,0.01,,,0.01,33.00,VWS V14.01,2013-05-30 12:44:00,
2013-05-30 06:49:00,49.0,46.5,29.62,North,-999,0.0,0.0,91,0.01,,,0.01,35.00,VWS V14.01,2013-05-30 12:49:00,
2013-05-30 06:54:00,49.0,46.2,29.62,North,-999,0.0,0.0,90,0.01,,,0.01,35.00,VWS V14.01,2013-05-30 12:54:00,
2013-05-30 06:59:00,49.2,46.4,29.62,North,-999,0.0,0.0,90,0.01,,,0.01,40.00,VWS V14.01,2013-05-30 12:59:00,
2013-05-30 07:04:00,49.4,46.6,29.62,North,-999,0.0,0.0,90,0.01,,,0.01,46.00,VWS V14.01,2013-05-30 13:04:00,
2013-05-30 07:09:00,49.4,46.3,29.62,North,-999,0.0,0.0,89,0.01,,,0.01,53.00,VWS V14.01,2013-05-30 13:09:00,
2013-05-30 07:14:00,49.6,46.2,29.62,North,-999,0.0,5.0,88,0.01,,,0.01,56.00,VWS V14.01,2013-05-30 13:14:00,
2013-05-30 07:19:00,49.8,46.1,29.62,North,-999,0.0,0.0,87,0.00,,,0.01,54.00,VWS V14.01,2013-05-30 13:19:00,
2013-05-30 07:24:00,49.9,46.2,29.63,North,-999,0.0,0.0,87,0.00,,,0.01,53.00,VWS V14.01,2013-05-30 13:24:00,
2013-05-30 07:29:00,50.0,45.7,29.62,North,-999,0.0,0.0,85,0.00,,,0.01,47.00,VWS V14.01,2013-05-30 13:29:00,
2013-05-30 07:34:00,50.1,46.1,29.63,North,-999,0.0,0.0,86,0.00,,,0.01,46.00,VWS V14.01,2013-05-30 13:34:00,
2013-05-30 07:39:00,50.2,45.6,29.63,North,-999,3.0,10.0,84,0.00,,,0.01,42.00,VWS V14.01,2013-05-30 13:39:00,
2013-05-30 07:44:00,50.2,45.6,29.63,North,-999,0.0,10.0,84,0.00,,,0.01,40.00,VWS V14.01,2013-05-30 13:44:00,
2013-05-30 07:49:00,50.3,45.7,29.63,North,-999,0.0,3.0,84,0.00,,,0.01,51.00,VWS V14.01,2013-05-30 13:49:00,
2013-05-30 07:54:00,50.3,45.7,29.63,North,-999,0.0,3.0,84,0.00,,,0.01,72.00,VWS V14.01,2013-05-30 13:54:00,
2013-05-30 07:59:00,50.3,46.0,29.64,North,-999,0.0,0.0,85,0.00,,,0.01,74.00,VWS V14.01,2013-05-30 13:59:00,
2013-05-30 08:04:00,50.4,45.1,29.64,North,-999,5.0,12.0,82,0.00,,,0.01,69.00,VWS V14.01,2013-05-30 14:04:00,
2013-05-30 08:09:00,50.5,44.9,29.64,North,-999,10.0,13.0,81,0.00,,,0.01,67.00,VWS V14.01,2013-05-30 14:09:00,
2013-05-30 08:14:00,50.5,44.6,29.64,North,-999,6.0,15.0,80,0.00,,,0.01,70.00,VWS V14.01,2013-05-30 14:14:00,
2013-05-30 08:19:00,50.5,44.9,29.64,North,-999,9.0,10.0,81,0.00,,,0.01,84.00,VWS V14.01,2013-05-30 14:19:00,
2013-05-30 08:24:00,50.4,44.8,29.64,North,-999,5.0,11.0,81,0.00,,,0.01,93.00,VWS V14.01,2013-05-30 14:24:00,
2013-05-30 08:29:00,50.5,44.6,29.64,North,-999,1.0,5.0,80,0.00,,,0.01,90.00,VWS V14.01,2013-05-30 14:29:00,
2013-05-30 08:34:00,50.5,44.6,29.64,North,-999,0.0,5.0,80,0.00,,,0.01,88.00,VWS V14.01,2013-05-30 14:34:00,
2013-05-30 08:39:00,50.6,45.0,29.64,North,-999,4.0,4.0,81,0.00,,,0.01,100.00,VWS V14.01,2013-05-30 14:39:00,
2013-05-30 08:44:00,50.7,44.8,29.64,North,-999,3.0,7.0,80,0.00,,,0.01,107.00,VWS V14.01,2013-05-30 14:44:00,
2013-05-30 08:49:00,50.7,44.4,29.65,North,-999,3.0,5.0,79,0.00,,,0.01,123.00,VWS V14.01,2013-05-30 14:49:00,
2013-05-30 08:54:00,50.8,44.5,29.65,North,-999,5.0,10.0,79,0.00,,,0.01,114.00,VWS V14.01,2013-05-30 14:54:00,
2013-05-30 08:59:00,50.8,44.2,29.65,North,-999,6.0,8.0,78,0.00,,,0.01,127.00,VWS V14.01,2013-05-30 14:59:00,
2013-05-30 09:04:00,50.8,44.2,29.65,North,-999,5.0,8.0,78,0.00,,,0.01,144.00,VWS V14.01,2013-05-30 15:04:00,
2013-05-30 09:09:00,50.9,44.6,29.65,North,-999,7.0,7.0,79,0.00,,,0.01,153.00,VWS V14.01,2013-05-30 15:09:00,
2013-05-30 09:14:00,51.0,44.0,29.65,North,-999,4.0,13.0,77,0.00,,,0.01,153.00,VWS V14.01,2013-05-30 15:14:00,
2013-05-30 09:19:00,51.1,43.5,29.65,North,-999,9.0,13.0,75,0.00,,,0.01,121.00,VWS V14.01,2013-05-30 15:19:00,
2013-05-30 09:24:00,51.0,43.7,29.65,North,-999,4.0,14.0,76,0.00,,,0.01,142.00,VWS V14.01,2013-05-30 15:24:00,
2013-05-30 09:29:00,51.0,44.0,29.65,North,-999,5.0,10.0,77,0.00,,,0.01,193.00,VWS V14.01,2013-05-30 15:29:00,
2013-05-30 09:34:00,51.1,43.8,29.65,North,-999,3.0,10.0,76,0.00,,,0.01,221.00,VWS V14.01,2013-05-30 15:34:00,
2013-05-30 09:39:00,51.5,44.2,29.65,North,-999,6.0,10.0,76,0.00,,,0.01,244.00,VWS V14.01,2013-05-30 15:39:00,
2013-05-30 09:44:00,51.9,43.2,29.65,North,-999,13.0,14.0,72,0.00,,,0.01,288.00,VWS V14.01,2013-05-30 15:44:00,
2013-05-30 09:49:00,52.3,43.9,29.65,North,-999,4.0,8.0,73,0.00,,,0.01,330.00,VWS V14.01,2013-05-30 15:49:00,
2013-05-30 09:54:00,52.7,43.2,29.65,North,-999,5.0,13.0,70,0.00,,,0.01,362.00,VWS V14.01,2013-05-30 15:54:00,
2013-05-30 09:59:00,52.9,43.8,29.65,North,-999,9.0,13.0,71,0.00,,,0.01,352.00,VWS V14.01,2013-05-30 15:59:00,
2013-05-30 10:04:00,53.1,43.2,29.65,North,-999,10.0,13.0,69,0.00,,,0.01,315.00,VWS V14.01,2013-05-30 16:04:00,
2013-05-30 10:09:00,53.3,44.2,29.65,North,-999,6.0,8.0,71,0.00,,,0.01,288.00,VWS V14.01,2013-05-30 16:09:00,
2013-05-30 10:14:00,53.5,43.6,29.65,North,-999,6.0,12.0,69,0.00,,,0.01,274.00,VWS V14.01,2013-05-30 16:14:00,
2013-05-30 10:19:00,53.5,43.6,29.65,North,-999,10.0,12.0,69,0.00,,,0.01,237.00,VWS V14.01,2013-05-30 16:19:00,
2013-05-30 10:24:00,53.6,43.7,29.65,North,-999,9.0,12.0,69,0.00,,,0.01,225.00,VWS V14.01,2013-05-30 16:24:00,
2013-05-30 10:29:00,53.7,43.8,29.65,North,-999,7.0,10.0,69,0.00,,,0.01,237.00,VWS V14.01,2013-05-30 16:29:00,
2013-05-30 10:34:00,53.9,44.3,29.65,North,-999,5.0,11.0,70,0.00,,,0.01,315.00,VWS V14.01,2013-05-30 16:34:00,
2013-05-30 10:39:00,54.1,43.0,29.65,North,-999,10.0,13.0,66,0.00,,,0.01,352.00,VWS V14.01,2013-05-30 16:39:00,
2013-05-30 10:44:00,54.2,43.1,29.65,North,-999,12.0,16.0,66,0.00,,,0.01,364.00,VWS V14.01,2013-05-30 16:44:00,
2013-05-30 10:49:00,54.5,43.4,29.65,North,-999,6.0,13.0,66,0.00,,,0.01,367.00,VWS V14.01,2013-05-30 16:49:00,
2013-05-30 10:54:00,54.6,43.9,29.65,North,-999,13.0,13.0,67,0.00,,,0.01,380.00,VWS V14.01,2013-05-30 16:54:00,
2013-05-30 10:59:00,54.7,42.8,29.65,North,-999,12.0,13.0,64,0.00,,,0.01,394.00,VWS V14.01,2013-05-30 16:59:00,
2013-05-30 11:04:00,54.6,43.9,29.65,North,-999,4.0,18.0,67,0.00,,,0.01,415.00,VWS V14.01,2013-05-30 17:04:00,
2013-05-30 11:09:00,54.8,43.7,29.65,North,-999,10.0,13.0,66,0.00,,,0.01,432.00,VWS V14.01,2013-05-30 17:09:00,
2013-05-30 11:14:00,54.8,42.5,29.65,North,-999,14.0,19.0,63,0.00,,,0.01,424.00,VWS V14.01,2013-05-30 17:14:00,
2013-05-30 11:19:00,54.7,42.8,29.65,North,-999,14.0,16.0,64,0.00,,,0.01,380.00,VWS V14.01,2013-05-30 17:19:00,
2013-05-30 11:24:00,54.8,44.1,29.65,North,-999,14.0,19.0,67,0.00,,,0.01,357.00,VWS V14.01,2013-05-30 17:24:00,
2013-05-30 11:29:00,54.9,44.2,29.65,North,-999,13.0,13.0,67,0.00,,,0.01,332.00,VWS V14.01,2013-05-30 17:29:00,
2013-05-30 11:34:00,54.9,43.8,29.65,North,-999,14.0,16.0,66,0.00,,,0.01,327.00,VWS V14.01,2013-05-30 17:34:00,
2013-05-30 11:39:00,54.8,44.1,29.66,North,-999,5.0,12.0,67,0.00,,,0.01,385.00,VWS V14.01,2013-05-30 17:39:00,
2013-05-30 11:44:00,54.8,43.7,29.66,North,-999,14.0,17.0,66,0.00,,,0.01,466.00,VWS V14.01,2013-05-30 17:44:00,
2013-05-30 11:49:00,55.0,43.1,29.66,North,-999,16.0,16.0,64,0.00,,,0.01,438.00,VWS V14.01,2013-05-30 17:49:00,
2013-05-30 11:54:00,55.4,43.0,29.66,North,-999,9.0,19.0,63,0.00,,,0.01,420.00,VWS V14.01,2013-05-30 17:54:00,
2013-05-30 11:59:00,55.7,42.5,29.66,North,-999,14.0,15.0,61,0.00,,,0.01,452.00,VWS V14.01,2013-05-30 17:59:00,
2013-05-30 12:04:00,55.8,42.6,29.66,North,-999,19.0,19.0,61,0.00,,,0.01,490.00,VWS V14.01,2013-05-30 18:04:00,
2013-05-30 12:08:00,55.7,42.0,29.67,North,-999,15.0,18.0,60,0.00,,,0.01,387.00,VWS V14.01,2013-05-30 18:08:00,
2013-05-30 12:13:00,55.6,43.2,29.66,North,-999,19.0,22.0,63,0.00,,,0.01,359.00,VWS V14.01,2013-05-30 18:13:00,
2013-05-30 12:18:00,55.5,41.4,29.67,North,-999,15.0,20.0,59,0.00,,,0.01,489.00,VWS V14.01,2013-05-30 18:18:00,
2013-05-30 12:23:00,55.7,41.6,29.66,North,-999,11.0,20.0,59,0.00,,,0.01,397.00,VWS V14.01,2013-05-30 18:23:00,
2013-05-30 12:28:00,55.7,40.7,29.66,North,-999,16.0,21.0,57,0.00,,,0.01,385.00,VWS V14.01,2013-05-30 18:28:00,
2013-05-30 12:33:00,56.0,43.6,29.66,North,-999,14.0,21.0,63,0.00,,,0.01,459.00,VWS V14.01,2013-05-30 18:33:00,
2013-05-30 12:38:00,56.2,40.7,29.66,North,-999,17.0,24.0,56,0.00,,,0.01,513.00,VWS V14.01,2013-05-30 18:38:00,
2013-05-30 12:43:00,56.4,41.8,29.66,North,-999,22.0,26.0,58,0.00,,,0.01,621.00,VWS V14.01,2013-05-30 18:43:00,
2013-05-30 12:48:00,56.5,42.8,29.66,North,-999,20.0,21.0,60,0.00,,,0.01,587.00,VWS V14.01,2013-05-30 18:48:00,
2013-05-30 12:53:00,56.5,41.9,29.66,North,-999,17.0,23.0,58,0.00,,,0.01,610.00,VWS V14.01,2013-05-30 18:53:00,
2013-05-30 12:58:00,56.9,41.8,29.66,North,-999,21.0,22.0,57,0.00,,,0.01,529.00,VWS V14.01,2013-05-30 18:58:00,
2013-05-30 13:03:00,56.6,41.1,29.66,North,-999,20.0,25.0,56,0.00,,,0.01,513.00,VWS V14.01,2013-05-30 19:03:00,
2013-05-30 13:08:00,56.5,41.5,29.66,North,-999,18.0,21.0,57,0.00,,,0.01,591.00,VWS V14.01,2013-05-30 19:08:00,
2013-05-30 13:13:00,56.7,41.7,29.66,North,-999,15.0,28.0,57,0.00,,,0.01,573.00,VWS V14.01,2013-05-30 19:13:00,
2013-05-30 13:18:00,56.7,41.2,29.66,North,-999,17.0,21.0,56,0.00,,,0.01,619.00,VWS V14.01,2013-05-30 19:18:00,
2013-05-30 13:23:00,57.0,41.9,29.66,North,-999,18.0,24.0,57,0.00,,,0.01,631.00,VWS V14.01,2013-05-30 19:23:00,
2013-05-30 13:28:00,57.1,41.1,29.66,North,-999,19.0,22.0,55,0.00,,,0.01,478.00,VWS V14.01,2013-05-30 19:28:00,
2013-05-30 13:33:00,57.2,41.7,29.66,North,-999,19.0,25.0,56,0.00,,,0.01,508.00,VWS V14.01,2013-05-30 19:33:00,
2013-05-30 13:38:00,57.2,40.7,29.66,North,-999,20.0,22.0,54,0.00,,,0.01,526.00,VWS V14.01,2013-05-30 19:38:00,
2013-05-30 13:43:00,57.4,40.4,29.65,North,-999,13.0,24.0,53,0.00,,,0.01,473.00,VWS V14.01,2013-05-30 19:43:00,
2013-05-30 13:48:00,57.4,39.9,29.65,North,-999,19.0,24.0,52,0.00,,,0.01,468.00,VWS V14.01,2013-05-30 19:48:00,
2013-05-30 13:53:00,57.3,40.3,29.65,North,-999,25.0,25.0,53,0.00,,,0.01,373.00,VWS V14.01,2013-05-30 19:53:00,
2013-05-30 13:58:00,57.1,40.2,29.66,North,-999,20.0,23.0,53,0.00,,,0.01,418.00,VWS V14.01,2013-05-30 19:58:00,
2013-05-30 14:03:00,57.3,41.3,29.66,North,-999,17.0,23.0,55,0.00,,,0.01,371.00,VWS V14.01,2013-05-30 20:03:00,
2013-05-30 14:08:00,57.1,40.6,29.66,North,-999,24.0,26.0,54,0.00,,,0.01,332.00,VWS V14.01,2013-05-30 20:08:00,
2013-05-30 14:13:00,56.7,40.7,29.66,North,-999,13.0,26.0,55,0.00,,,0.01,350.00,VWS V14.01,2013-05-30 20:13:00,
2013-05-30 14:18:00,56.4,40.5,29.66,North,-999,21.0,27.0,55,0.00,,,0.01,339.00,VWS V14.01,2013-05-30 20:18:00,
2013-05-30 14:23:00,56.3,40.4,29.66,North,-999,10.0,27.0,55,0.00,,,0.01,357.00,VWS V14.01,2013-05-30 20:23:00,
2013-05-30 14:28:00,56.4,40.5,29.66,North,-999,16.0,22.0,55,0.00,,,0.01,504.00,VWS V14.01,2013-05-30 20:28:00,
2013-05-30 14:33:00,56.6,40.6,29.66,North,-999,14.0,22.0,55,0.00,,,0.01,432.00,VWS V14.01,2013-05-30 20:33:00,
2013-05-30 14:38:00,56.7,40.7,29.67,North,-999,14.0,20.0,55,0.00,,,0.01,308.00,VWS V14.01,2013-05-30 20:38:00,
2013-05-30 14:43:00,56.6,40.2,29.67,North,-999,16.0,23.0,54,0.00,,,0.01,279.00,VWS V14.01,2013-05-30 20:43:00,
2013-05-30 14:48:00,56.5,40.1,29.66,North,-999,14.0,19.0,54,0.00,,,0.01,352.00,VWS V14.01,2013-05-30 20:48:00,
2013-05-30 14:53:00,56.6,40.2,29.67,North,-999,16.0,24.0,54,0.00,,,0.01,411.00,VWS V14.01,2013-05-30 20:53:00,
2013-05-30 14:58:00,56.7,39.8,29.67,North,-999,18.0,22.0,53,0.00,,,0.01,364.00,VWS V14.01,2013-05-30 20:58:00,
2013-05-30 15:03:00,56.7,40.7,29.67,North,-999,13.0,25.0,55,0.00,,,0.01,374.00,VWS V14.01,2013-05-30 21:03:00,
2013-05-30 15:08:00,56.7,39.8,29.67,North,-999,19.0,24.0,53,0.00,,,0.01,374.00,VWS V14.01,2013-05-30 21:08:00,
2013-05-30 15:13:00,56.7,39.8,29.67,North,-999,19.0,30.0,53,0.00,,,0.01,408.00,VWS V14.01,2013-05-30 21:13:00,
2013-05-30 15:18:00,56.7,40.7,29.67,North,-999,20.0,23.0,55,0.00,,,0.01,450.00,VWS V14.01,2013-05-30 21:18:00,
2013-05-30 15:23:00,56.6,40.6,29.67,North,-999,16.0,27.0,55,0.00,,,0.01,392.00,VWS V14.01,2013-05-30 21:23:00,
2013-05-30 15:28:00,56.7,41.2,29.67,North,-999,18.0,22.0,56,0.00,,,0.01,459.00,VWS V14.01,2013-05-30 21:28:00,
2013-05-30 15:33:00,56.8,40.8,29.67,North,-999,18.0,28.0,55,0.00,,,0.01,519.00,VWS V14.01,2013-05-30 21:33:00,
2013-05-30 15:38:00,57.1,40.2,29.68,North,-999,23.0,25.0,53,0.00,,,0.01,489.00,VWS V14.01,2013-05-30 21:38:00,
2013-05-30 15:43:00,57.4,40.4,29.68,North,-999,21.0,27.0,53,0.00,,,0.01,487.00,VWS V14.01,2013-05-30 21:43:00,
2013-05-30 15:48:00,57.7,39.2,29.68,North,-999,20.0,25.0,50,0.00,,,0.01,427.00,VWS V14.01,2013-05-30 21:48:00,
2013-05-30 15:53:00,57.6,39.1,29.68,North,-999,27.0,30.0,50,0.00,,,0.01,482.00,VWS V14.01,2013-05-30 21:53:00,
2013-05-30 15:58:00,57.3,38.3,29.68,North,-999,26.0,28.0,49,0.00,,,0.01,369.00,VWS V14.01,2013-05-30 21:58:00,
2013-05-30 16:03:00,57.3,39.3,29.68,North,-999,24.0,29.0,51,0.00,,,0.01,355.00,VWS V14.01,2013-05-30 22:03:00,
2013-05-30 16:08:00,57.5,38.5,29.68,North,-999,19.0,28.0,49,0.00,,,0.01,497.00,VWS V14.01,2013-05-30 22:08:00,
2013-05-30 16:13:00,57.5,38.5,29.69,North,-999,20.0,31.0,49,0.00,,,0.01,390.00,VWS V14.01,2013-05-30 22:13:00,
2013-05-30 16:18:00,57.2,38.2,29.68,North,-999,23.0,27.0,49,0.00,,,0.01,378.00,VWS V14.01,2013-05-30 22:18:00,
2013-05-30 16:23:00,57.3,39.3,29.69,North,-999,15.0,27.0,51,0.00,,,0.01,455.00,VWS V14.01,2013-05-30 22:23:00,
2013-05-30 16:28:00,57.5,39.0,29.69,North,-999,13.0,23.0,50,0.00,,,0.01,445.00,VWS V14.01,2013-05-30 22:28:00,
2013-05-30 16:33:00,57.3,38.3,29.68,North,-999,20.0,30.0,49,0.00,,,0.01,429.00,VWS V14.01,2013-05-30 22:33:00,
2013-05-30 16:38:00,57.5,39.5,29.69,North,-999,22.0,22.0,51,0.00,,,0.01,443.00,VWS V14.01,2013-05-30 22:38:00,
2013-05-30 16:43:00,57.6,38.1,29.69,North,-999,19.0,28.0,48,0.00,,,0.01,341.00,VWS V14.01,2013-05-30 22:43:00,
2013-05-30 16:48:00,57.6,38.1,29.69,North,-999,15.0,17.0,48,0.00,,,0.01,279.00,VWS V14.01,2013-05-30 22:48:00,
2013-05-30 16:53:00,57.6,38.6,29.69,North,-999,12.0,25.0,49,0.00,,,0.01,315.00,VWS V14.01,2013-05-30 22:53:00,
2013-05-30 16:58:00,57.6,38.1,29.69,North,-999,14.0,20.0,48,0.00,,,0.01,218.00,VWS V14.01,2013-05-30 22:58:00,
2013-05-30 17:03:00,57.4,38.9,29.69,North,-999,18.0,24.0,50,0.00,,,0.01,167.00,VWS V14.01,2013-05-30 23:03:00,
2013-05-30 17:08:00,57.2,38.2,29.69,North,-999,17.0,17.0,49,0.00,,,0.01,207.00,VWS V14.01,2013-05-30 23:08:00,
2013-05-30 17:13:00,57.2,38.2,29.69,North,-999,26.0,29.0,49,0.00,,,0.01,271.00,VWS V14.01,2013-05-30 23:13:00,
2013-05-30 17:18:00,57.2,37.2,29.69,North,-999,23.0,23.0,47,0.00,,,0.01,186.00,VWS V14.01,2013-05-30 23:18:00,
2013-05-30 17:23:00,57.1,37.6,29.70,North,-999,22.0,33.0,48,0.00,,,0.01,151.00,VWS V14.01,2013-05-30 23:23:00,
2013-05-30 17:28:00,56.8,37.3,29.70,North,-999,14.0,19.0,48,0.00,,,0.01,188.00,VWS V14.01,2013-05-30 23:28:00,
2013-05-30 17:33:00,56.9,36.9,29.70,North,-999,14.0,31.0,47,0.00,,,0.01,211.00,VWS V14.01,2013-05-30 23:33:00,
2013-05-30 17:38:00,57.0,37.5,29.71,North,-999,11.0,13.0,48,0.00,,,0.01,262.00,VWS V14.01,2013-05-30 23:38:00,
2013-05-30 17:43:00,57.2,37.2,29.70,North,-999,22.0,23.0,47,0.00,,,0.01,214.00,VWS V14.01,2013-05-30 23:43:00,
2013-05-30 17:48:00,57.3,38.3,29.70,North,-999,17.0,17.0,49,0.00,,,0.01,292.00,VWS V14.01,2013-05-30 23:48:00,
2013-05-30 17:53:00,57.4,37.3,29.70,North,-999,19.0,27.0,47,0.00,,,0.01,292.00,VWS V14.01,2013-05-30 23:53:00,
2013-05-30 17:58:00,57.5,38.0,29.70,North,-999,22.0,22.0,48,0.00,,,0.01,279.00,VWS V14.01,2013-05-30 23:58:00,
2013-05-30 18:03:00,57.5,37.5,29.70,North,-999,22.0,27.0,47,0.00,,,0.01,278.00,VWS V14.01,2013-05-31 00:03:00,
2013-05-30 18:08:00,57.5,38.5,29.70,North,-999,20.0,20.0,49,0.00,,,0.01,269.00,VWS V14.01,2013-05-31 00:08:00,
2013-05-30 18:13:00,57.5,38.0,29.70,North,-999,16.0,27.0,48,0.00,,,0.01,225.00,VWS V14.01,2013-05-31 00:13:00,
2013-05-30 18:18:00,57.2,38.8,29.70,North,-999,18.0,19.0,50,0.00,,,0.01,179.00,VWS V14.01,2013-05-31 00:18:00,
2013-05-30 18:23:00,57.0,37.0,29.70,North,-999,20.0,25.0,47,0.00,,,0.01,171.00,VWS V14.01,2013-05-31 00:23:00,
2013-05-30 18:27:00,56.8,37.9,29.70,North,-999,16.0,18.0,49,0.00,,,0.01,179.00,VWS V14.01,2013-05-31 00:27:00,
2013-05-30 18:32:00,56.9,38.0,29.70,North,-999,12.0,23.0,49,0.00,,,0.01,178.00,VWS V14.01,2013-05-31 00:32:00,
2013-05-30 18:38:00,57.0,37.0,29.71,North,-999,13.0,28.0,47,0.00,,,0.01,179.00,VWS V14.01,2013-05-31 00:38:00,
2013-05-30 18:42:00,57.0,36.4,29.71,North,-999,14.0,21.0,46,0.00,,,0.01,176.00,VWS V14.01,2013-05-31 00:42:00,
2013-05-30 18:47:00,57.0,37.5,29.71,North,-999,12.0,13.0,48,0.00,,,0.01,174.00,VWS V14.01,2013-05-31 00:47:00,
2013-05-30 18:52:00,57.1,37.1,29.71,North,-999,18.0,21.0,47,0.00,,,0.01,185.00,VWS V14.01,2013-05-31 00:52:00,
2013-05-30 18:57:00,57.1,38.1,29.71,North,-999,16.0,23.0,49,0.00,,,0.01,156.00,VWS V14.01,2013-05-31 00:57:00,
2013-05-30 19:02:00,56.9,37.4,29.71,North,-999,18.0,24.0,48,0.00,,,0.01,142.00,VWS V14.01,2013-05-31 01:02:00,
2013-05-30 19:07:00,56.8,37.9,29.71,North,-999,14.0,25.0,49,0.00,,,0.01,139.00,VWS V14.01,2013-05-31 01:07:00,
2013-05-30 19:12:00,56.5,38.6,29.71,North,-999,8.0,19.0,51,0.00,,,0.01,135.00,VWS V14.01,2013-05-31 01:12:00,
2013-05-30 19:17:00,56.4,38.5,29.72,North,-999,5.0,21.0,51,0.00,,,0.01,130.00,VWS V14.01,2013-05-31 01:17:00,
2013-05-30 19:22:00,56.6,37.2,29.72,North,-999,14.0,27.0,48,0.00,,,0.01,134.00,VWS V14.01,2013-05-31 01:22:00,
2013-05-30 19:27:00,56.7,36.7,29.71,North,-999,24.0,28.0,47,0.00,,,0.01,123.00,VWS V14.01,2013-05-31 01:27:00,
2013-05-30 19:32:00,56.7,36.7,29.72,North,-999,17.0,28.0,47,0.00,,,0.01,105.00,VWS V14.01,2013-05-31 01:32:00,
2013-05-30 19:37:00,56.6,37.2,29.72,North,-999,17.0,28.0,48,0.00,,,0.01,93.00,VWS V14.01,2013-05-31 01:37:00,
2013-05-30 19:42:00,56.5,36.0,29.72,North,-999,17.0,30.0,46,0.00,,,0.01,76.00,VWS V14.01,2013-05-31 01:42:00,
2013-05-30 19:47:00,56.4,36.4,29.72,North,-999,14.0,30.0,47,0.00,,,0.01,63.00,VWS V14.01,2013-05-31 01:47:00,
2013-05-30 19:52:00,56.3,36.3,29.72,North,-999,18.0,24.0,47,0.00,,,0.01,53.00,VWS V14.01,2013-05-31 01:52:00,
2013-05-30 19:57:00,56.2,36.8,29.72,North,-999,19.0,24.0,48,0.00,,,0.01,46.00,VWS V14.01,2013-05-31 01:57:00,
2013-05-30 20:02:00,55.6,38.8,29.72,North,-999,13.0,21.0,53,0.00,,,0.01,40.00,VWS V14.01,2013-05-31 02:02:00,
2013-05-30 20:07:00,55.0,39.6,29.72,North,-999,14.0,24.0,56,0.00,,,0.01,39.00,VWS V14.01,2013-05-31 02:07:00,
2013-05-30 20:12:00,54.7,39.8,29.73,North,-999,9.0,25.0,57,0.00,,,0.01,35.00,VWS V14.01,2013-05-31 02:12:00,
2013-05-30 20:17:00,54.4,40.0,29.73,North,-999,16.0,25.0,58,0.00,,,0.01,32.00,VWS V14.01,2013-05-31 02:17:00,
2013-05-30 20:22:00,54.2,39.8,29.73,North,-999,16.0,21.0,58,0.00,,,0.01,28.00,VWS V14.01,2013-05-31 02:22:00,
2013-05-30 20:27:00,54.2,39.8,29.73,North,-999,16.0,22.0,58,0.00,,,0.01,23.00,VWS V14.01,2013-05-31 02:27:00,
2013-05-30 20:32:00,54.1,39.7,29.73,North,-999,16.0,23.0,58,0.00,,,0.01,16.00,VWS V14.01,2013-05-31 02:32:00,
2013-05-30 20:37:00,54.0,40.0,29.73,North,-999,13.0,23.0,59,0.00,,,0.01,11.00,VWS V14.01,2013-05-31 02:37:00,
2013-05-30 20:42:00,53.8,40.3,29.74,North,-999,13.0,19.0,60,0.00,,,0.01,7.00,VWS V14.01,2013-05-31 02:42:00,
2013-05-30 20:47:00,53.8,39.8,29.74,North,-999,14.0,19.0,59,0.00,,,0.01,0.00,VWS V14.01,2013-05-31 02:47:00,
2013-05-30 20:52:00,53.8,39.8,29.74,North,-999,17.0,23.0,59,0.00,,,0.01,0.00,VWS V14.01,2013-05-31 02:52:00,
2013-05-30 20:57:00,54.0,40.0,29.74,North,-999,12.0,24.0,59,0.00,,,0.01,0.00,VWS V14.01,2013-05-31 02:57:00,
2013-05-30 21:02:00,53.9,39.5,29.74,North,-999,15.0,20.0,58,0.00,,,0.01,0.00,VWS V14.01,2013-05-31 03:02:00,
2013-05-30 21:07:00,53.9,38.6,29.74,North,-999,11.0,21.0,56,0.00,,,0.01,0.00,VWS V14.01,2013-05-31 03:07:00,
2013-05-30 21:12:00,53.9,38.1,29.74,North,-999,12.0,16.0,55,0.00,,,0.01,0.00,VWS V14.01,2013-05-31 03:12:00,
2013-05-30 21:17:00,54.0,37.8,29.74,North,-999,11.0,18.0,54,0.00,,,0.01,0.00,VWS V14.01,2013-05-31 03:17:00,
2013-05-30 21:22:00,54.2,37.0,29.75,North,-999,10.0,22.0,52,0.00,,,0.01,0.00,VWS V14.01,2013-05-31 03:22:00,
2013-05-30 21:27:00,54.1,36.9,29.75,North,-999,14.0,22.0,52,0.00,,,0.01,0.00,VWS V14.01,2013-05-31 03:27:00,
2013-05-30 21:32:00,54.0,37.3,29.75,North,-999,14.0,16.0,53,0.00,,,0.01,0.00,VWS V14.01,2013-05-31 03:32:00,
2013-05-30 21:37:00,53.9,37.7,29.75,North,-999,12.0,18.0,54,0.00,,,0.01,0.00,VWS V14.01,2013-05-31 03:37:00,
2013-05-30 21:42:00,53.5,38.7,29.75,North,-999,17.0,22.0,57,0.00,,,0.01,0.00,VWS V14.01,2013-05-31 03:42:00,
2013-05-30 21:47:00,53.4,39.0,29.75,North,-999,10.0,24.0,58,0.00,,,0.01,0.00,VWS V14.01,2013-05-31 03:47:00,
2013-05-30 21:52:00,53.1,39.2,29.76,North,-999,7.0,17.0,59,0.00,,,0.01,0.00,VWS V14.01,2013-05-31 03:52:00,
2013-05-30 21:57:00,52.6,39.5,29.76,North,-999,11.0,17.0,61,0.00,,,0.01,0.00,VWS V14.01,2013-05-31 03:57:00,
2013-05-30 22:01:00,52.6,38.7,29.76,North,-999,13.0,17.0,59,0.00,,,0.01,0.00,VWS V14.01,2013-05-31 04:01:00,
2013-05-30 22:06:00,52.6,39.1,29.76,North,-999,10.0,18.0,60,0.00,,,0.01,0.00,VWS V14.01,2013-05-31 04:06:00,
2013-05-30 22:11:00,52.4,39.4,29.76,North,-999,11.0,14.0,61,0.00,,,0.01,0.00,VWS V14.01,2013-05-31 04:11:00,
2013-05-30 22:16:00,52.3,39.3,29.76,North,-999,3.0,16.0,61,0.00,,,0.01,0.00,VWS V14.01,2013-05-31 04:16:00,
2013-05-30 22:21:00,52.2,38.8,29.76,North,-999,10.0,14.0,60,0.00,,,0.01,0.00,VWS V14.01,2013-05-31 04:21:00,
2013-05-30 22:26:00,52.2,39.2,29.76,North,-999,8.0,17.0,61,0.00,,,0.01,0.00,VWS V14.01,2013-05-31 04:26:00,
2013-05-30 22:31:00,52.0,39.0,29.76,North,-999,13.0,18.0,61,0.00,,,0.01,0.00,VWS V14.01,2013-05-31 04:31:00,
2013-05-30 22:36:00,51.9,38.9,29.76,North,-999,12.0,18.0,61,0.00,,,0.01,0.00,VWS V14.01,2013-05-31 04:36:00,
2013-05-30 22:41:00,51.9,38.9,29.76,North,-999,16.0,18.0,61,0.00,,,0.01,0.00,VWS V14.01,2013-05-31 04:41:00,
2013-05-30 22:46:00,51.8,38.8,29.76,North,-999,18.0,19.0,61,0.00,,,0.01,0.00,VWS V14.01,2013-05-31 04:46:00,
2013-05-30 22:51:00,51.7,38.7,29.76,North,-999,6.0,13.0,61,0.00,,,0.01,0.00,VWS V14.01,2013-05-31 04:51:00,
2013-05-30 22:56:00,51.6,38.2,29.76,North,-999,16.0,23.0,60,0.00,,,0.01,0.00,VWS V14.01,2013-05-31 04:56:00,
2013-05-30 23:01:00,51.8,38.4,29.76,North,-999,13.0,19.0,60,0.00,,,0.01,0.00,VWS V14.01,2013-05-31 05:01:00,
2013-05-30 23:06:00,51.6,38.6,29.76,North,-999,14.0,19.0,61,0.00,,,0.01,0.00,VWS V14.01,2013-05-31 05:06:00,
2013-05-30 23:11:00,51.5,38.5,29.76,North,-999,10.0,20.0,61,0.00,,,0.01,0.00,VWS V14.01,2013-05-31 05:11:00,
2013-05-30 23:16:00,51.5,38.9,29.76,North,-999,10.0,20.0,62,0.00,,,0.01,0.00,VWS V14.01,2013-05-31 05:16:00,
2013-05-30 23:21:00,51.4,38.8,29.76,North,-999,10.0,20.0,62,0.00,,,0.01,0.00,VWS V14.01,2013-05-31 05:21:00,
2013-05-30 23:26:00,51.4,38.8,29.76,North,-999,12.0,20.0,62,0.00,,,0.01,0.00,VWS V14.01,2013-05-31 05:26:00,
2013-05-30 23:31:00,51.3,39.2,29.76,North,-999,11.0,15.0,63,0.00,,,0.01,0.00,VWS V14.01,2013-05-31 05:31:00,
2013-05-30 23:36:00,51.3,38.3,29.76,North,-999,20.0,25.0,61,0.00,,,0.01,0.00,VWS V14.01,2013-05-31 05:36:00,
2013-05-30 23:41:00,51.6,38.6,29.76,North,-999,13.0,20.0,61,0.00,,,0.01,0.00,VWS V14.01,2013-05-31 05:41:00,
2013-05-30 23:46:00,51.5,38.5,29.76,North,-999,14.0,23.0,61,0.00,,,0.01,0.00,VWS V14.01,2013-05-31 05:46:00,
2013-05-30 23:51:00,51.5,38.5,29.76,North,-999,7.0,14.0,61,0.00,,,0.01,0.00,VWS V14.01,2013-05-31 05:51:00,
2013-05-30 23:56:00,51.3,38.3,29.76,North,-999,13.0,18.0,61,0.00,,,0.01,0.00,VWS V14.01,2013-05-31 05:56:00,